Location: Allison's Woods
(35.8809°N, 80.8140°W)
Time: 12:25:14
(UTC-04:00)

Iridium 39 - Visible Passes

Search period start: 16 April 2014 00:00
Search period end: 26 April 2014 00:00
Orbit: 776 x 779 km, 86.4° (Epoch: 16 April)

Date Brightness Start Highest point End Pass type
(mag) Time Alt. Az. Time Alt. Az. Time Alt. Az.
16 Apr 6.7 20:50:15 10° SSE 20:54:53 34° E 20:59:32 10° NNE visible
16 Apr 8.2 22:31:32 10° SW 22:35:37 23° W 22:39:43 10° NNW visible
17 Apr 7.1 21:56:59 10° SSW 22:01:55 43° W 22:06:52 10° NNW visible
18 Apr 6.0 21:23:08 10° S 21:28:20 84° W 21:33:34 10° N visible
19 Apr 6.2 20:49:53 10° SSE 20:54:53 50° E 20:59:54 10° NNE visible
19 Apr 8.7 22:32:48 10° WSW 22:35:52 16° WNW 22:38:57 10° NW visible
20 Apr 7.9 21:57:35 10° SW 22:02:05 29° W 22:06:37 10° NNW visible
21 Apr 6.7 21:23:20 10° SSW 21:28:26 57° W 21:33:34 10° N visible
22 Apr 6.0 20:49:44 10° S 20:54:54 75° E 21:00:06 10° N visible
22 Apr 9.2 22:35:39 10° W 22:36:10 10° WNW 22:36:42 10° WNW visible
23 Apr 8.5 21:58:31 10° SW 22:02:18 20° W 22:06:07 10° NNW visible
24 Apr 7.5 21:23:46 10° SSW 21:28:34 38° W 21:33:25 10° NNW visible
25 Apr 6.3 20:49:47 10° S 20:54:58 74° W 21:00:11 10° N visible
